Location: Carrer del Canonge
(41.4901°N, 2.2931°E)
Time: 02:51:20
(UTC+00:00)

SPOT 3 Rocket - Pass Details

Date: 23 June 2021
Orbit: 779 x 794 km, 98.7° (Epoch: 01 August)

Event Time Altitude Azimuth Distance (km) Brightness Sun altitude
Exits shadow 21:17:11 10° 194° (SSW) 2,376 5.7 -15.7°
Reaches altitude 10° 21:17:18 10° 195° (SSW) 2,336 5.6 -15.7°
Maximum altitude 21:22:03 37° 262° (W) 1,204 4.7 -16.3°
Drops below altitude 10° 21:26:52 10° 330° (NNW) 2,361 7.4 -16.8°
Sets 21:29:23 0° 338° (NNW) 3,297 8.4 -17.0°
